Home > Weather > Tallinn > Past weeks

Flag for Estonia Weather for the Past 2 Weeks in Tallinn, Estonia

Now
48 °F

Sunny.


Feels Like: 47 °F
Forecast: 37 / 52 °F
Wind: 3 mph from Southeast

Location: Tallinn

Current Time: Apr 29, 2016 at 9:41:17 PM

Latest Report: Apr 29, 2016 at 9:20 PM


Visibility: 10 mi

Pressure: 30.30 "Hg

Humidity: 54%

Dew Point: 32 °F

Location of TallinnLocation

Historic Weather in Tallinn — Graph

°F

Tallinn Temperature Yesterday

Maximum temperature yesterday: 55 °F (at 4:20 PM)
Minimum temperature yesterday: 34 °F (at 5:20 AM)
Average temperature yesterday: 46 °F

High & Low Weather Summary for the Past Weeks

 TemperatureHumidityPressure
High59 °F (Apr 16, 2:50 PM)100% (Apr 17, 11:20 PM)30.30 "Hg (Apr 17, 11:20 PM)
Low25 °F (Apr 24, 6:20 AM)28% (Apr 15, 1:20 PM)29.45 "Hg (Apr 24, 11:20 PM)
Average42 °F79%29.73 "Hg
* Reported Apr 14 8:20 PM — Apr 29 8:20 PM, Tallinn, Weather by CustomWeather, © 2016

Note: Actual official high and low records may vary slightly from our data, if they occured in-between our weather recording intervals... More about our weather records

Advertising

Tallinn Weather History for the Previous 24 Hours

Scroll right to see more
 ConditionsComfort  
Time TempWeatherWind HumidityBarometerVisibility
8:20 PM
Fri, Apr 29
50 °FPassing clouds.9 mph47%30.30 "HgN/A
7:50 PM52 °FPassing clouds.10 mph44%30.30 "HgN/A
7:20 PM52 °FPassing clouds.10 mph47%30.30 "HgN/A
6:50 PM52 °FPassing clouds.9 mph50%30.27 "HgN/A
6:20 PM52 °FSprinkles. Passing clouds.10 mph54%30.27 "HgN/A
5:50 PM54 °FSunny.12 mph51%30.27 "Hg10 mi
5:20 PM55 °FSunny.12 mph51%30.27 "Hg10 mi
4:50 PM55 °FSunny.13 mph51%30.27 "Hg10 mi
4:20 PM55 °FSunny.9 mph51%30.27 "Hg10 mi
3:50 PM55 °FSunny.12 mph47%30.27 "Hg10 mi
3:20 PM55 °FSunny.5 mph41%30.27 "Hg10 mi
2:50 PM55 °FSunny.6 mph38%30.27 "Hg10 mi
2:20 PM57 °FSunny.7 mph39%30.27 "Hg10 mi
1:50 PM55 °FSunny.7 mph41%30.27 "Hg10 mi
1:20 PM55 °FSunny.6 mph47%30.27 "Hg10 mi
12:50 PM55 °FScattered clouds.8 mph44%30.27 "HgN/A
12:20 PM55 °FScattered clouds.7 mph44%30.27 "HgN/A
11:50 AM54 °FPassing clouds.9 mph47%30.27 "HgN/A
11:20 AM52 °FSunny.8 mph58%30.24 "Hg10 mi
10:50 AM52 °FSunny.9 mph58%30.24 "Hg10 mi
10:20 AM50 °FSunny.9 mph67%30.24 "Hg10 mi
9:50 AM48 °FSunny.8 mph76%30.24 "Hg10 mi
9:20 AM46 °FSunny.7 mph76%30.24 "Hg10 mi
8:50 AM45 °FSunny.8 mph81%30.21 "Hg10 mi
8:20 AM41 °FSunny.7 mph93%30.21 "Hg10 mi
7:50 AM39 °FSunny.7 mph93%30.21 "Hg10 mi
7:20 AM37 °FSunny.7 mph93%30.18 "Hg10 mi
6:50 AM36 °FSunny.6 mph93%30.18 "Hg10 mi
6:20 AM36 °FClear.6 mph93%30.15 "Hg10 mi
4:20 AM36 °FClear.6 mph93%30.12 "Hg10 mi
3:50 AM36 °FClear.5 mph93%30.09 "Hg10 mi
3:20 AM37 °FClear.6 mph87%30.09 "Hg10 mi
2:50 AM37 °FClear.6 mph93%30.09 "Hg10 mi
2:20 AM37 °FClear.6 mph93%30.07 "Hg10 mi
1:50 AM39 °FPassing clouds.6 mph87%30.07 "HgN/A
1:20 AM41 °FPassing clouds.7 mph81%30.04 "HgN/A
12:50 AM41 °FPassing clouds.9 mph81%30.04 "HgN/A
12:20 AM41 °FOvercast.9 mph87%30.01 "HgN/A
11:50 PM
Thu, Apr 28
41 °FOvercast.9 mph87%29.98 "HgN/A
11:20 PM41 °FPassing clouds.13 mph87%29.95 "HgN/A
10:50 PM43 °FPassing clouds.14 mph87%29.95 "HgN/A
10:20 PM46 °FPassing clouds.13 mph82%29.92 "HgN/A
9:50 PM46 °FPartly sunny.8 mph87%29.89 "HgN/A
9:20 PM48 °FPartly sunny.9 mph82%29.89 "HgN/A
Weather by CustomWeather, © 2016

See weather overviewHow to use our weather pages